Williamsburg, VA

5:12 AM EDT on June 28, 2017 (GMT -0400)
Williamsburg-jamestown

Weather History for KJGG - November, 2012

Change the Weather History Date:

Saturday, November 24, 2012

  Actual Average Record
Temperature  
Mean Temperature 42 °F -  
Max Temperature 55 °F 59 °F 77 °F (2014)
Min Temperature 30 °F 36 °F 18 °F (1970)
Degree Days  
Heating Degree Days 22    
Moisture  
Dew Point 24 °F    
Average Humidity 48    
Maximum Humidity 75    
Minimum Humidity 34    
Precipitation  
Precipitation 0.00 in - - ()
Sea Level Pressure  
Sea Level Pressure 29.97 in    
Wind  
Wind Speed 10 mph (NNW)    
Max Wind Speed 18 mph    
Max Gust Speed 26 mph    
Visibility 10 miles    
Events      
Averages and records for this station are not official NWS values.
T = Trace of Precipitation, MM = Missing Value Source: NWS Daily Summary

Daily Weather History Graph

Daily Weather History Graph

Search for Another Location

Airport or City:

Trip Planner

Search our weather history database for the weather conditions in past years. The results will help you decide how hot, cold, wet, or windy it might be!

Date:

Astronomy

Nov. 24, 2012 Rise Set
Actual Time 6:55 AM EST 4:51 PM EST
Civil Twilight 6:27 AM EST 5:19 PM EST
Nautical Twilight 5:55 AM EST 5:51 PM EST
Astronomical Twilight 5:24 AM EST 6:22 PM EST
Moon 2:31 PM EST (11/24) 3:14 AM EST (11/24)
Length of Visible Light 10h 52m
Length of Day
9h 55m
Waxing Gibbous, 87% of the Moon is Illuminated
Nov 24
Waxing Gibbous
Nov 28
Full
Dec 6
Last Quarter
Dec 13
New
Dec 20
First Quarter

Hourly Weather History & Observations

Time (EST) Temp. Windchill Dew Point Humidity Pressure Visibility Wind Dir Wind Speed Gust Speed Precip Events Conditions
12:15 AM 55.4 °F - 39.2 °F 54% 29.82 in 10.0 mi NW 13.8 mph 19.6 mph N/A   Clear
12:35 AM 55.4 °F - 35.6 °F 47% 29.82 in 10.0 mi NW 13.8 mph 21.9 mph N/A   Clear
12:55 AM 53.6 °F - 33.8 °F 47% 29.82 in 10.0 mi NW 9.2 mph - N/A   Clear
1:15 AM 53.6 °F - 33.8 °F 47% 29.82 in 10.0 mi NW 9.2 mph - N/A   Clear
1:35 AM 53.6 °F - 32.0 °F 44% 29.82 in 10.0 mi NW 6.9 mph 16.1 mph N/A   Clear
1:55 AM 51.8 °F - 32.0 °F 47% 29.82 in 10.0 mi NW 6.9 mph - N/A   Clear
2:15 AM 51.8 °F - 32.0 °F 47% 29.83 in 10.0 mi NW 4.6 mph - N/A   Clear
2:35 AM 50.0 °F - 32.0 °F 50% 29.83 in 10.0 mi NW 8.1 mph - N/A   Clear
2:55 AM 50.0 °F - 30.2 °F 47% 29.83 in 10.0 mi NW 8.1 mph - N/A   Clear
3:15 AM 50.0 °F - 30.2 °F 47% 29.84 in 10.0 mi NW 9.2 mph - N/A   Clear
3:35 AM 48.2 °F - 30.2 °F 50% 29.84 in 10.0 mi NNW 9.2 mph - N/A   Clear
3:55 AM 48.2 °F - 30.2 °F 50% 29.85 in 10.0 mi NNW 13.8 mph 19.6 mph N/A   Clear
4:15 AM 48.2 °F - 30.2 °F 50% 29.86 in 10.0 mi NNW 9.2 mph - N/A   Clear
4:35 AM 46.4 °F 41.5 °F 28.4 °F 50% 29.87 in 10.0 mi NNW 10.4 mph 19.6 mph N/A   Clear
4:55 AM 46.4 °F 41.9 °F 28.4 °F 50% 29.87 in 10.0 mi North 9.2 mph 18.4 mph N/A   Clear
5:15 AM 44.6 °F 39.2 °F 28.4 °F 53% 29.89 in 10.0 mi North 10.4 mph 16.1 mph N/A   Clear
5:35 AM 42.8 °F 36.6 °F 26.6 °F 53% 29.90 in 10.0 mi NNW 11.5 mph 21.9 mph N/A   Clear
5:55 AM 42.8 °F 37.5 °F 26.6 °F 53% 29.92 in 10.0 mi NNE 9.2 mph 21.9 mph N/A   Clear
6:15 AM 41.0 °F 34.3 °F 26.6 °F 57% 29.93 in 10.0 mi North 11.5 mph 25.3 mph N/A   Clear
6:35 AM 39.2 °F 31.2 °F 24.8 °F 56% 29.94 in 10.0 mi North 13.8 mph 24.2 mph N/A   Clear
6:55 AM 39.2 °F 33.0 °F 23.0 °F 52% 29.96 in 10.0 mi North 9.2 mph 18.4 mph N/A   Clear
7:15 AM 37.4 °F 31.4 °F 21.2 °F 52% 29.97 in 10.0 mi North 8.1 mph - N/A   Clear
7:35 AM 37.4 °F 31.4 °F 21.2 °F 52% 29.98 in 10.0 mi North 8.1 mph 20.7 mph N/A   Clear
7:55 AM 39.2 °F 34.2 °F 21.2 °F 49% 29.99 in 10.0 mi North 6.9 mph 20.7 mph N/A   Clear
8:15 AM 39.2 °F 33.0 °F 19.4 °F 45% 30.00 in 10.0 mi NNW 9.2 mph 19.6 mph N/A   Clear
8:35 AM 39.2 °F 30.8 °F 19.4 °F 45% 30.00 in 10.0 mi North 15.0 mph 23.0 mph N/A   Clear
8:55 AM 41.0 °F 35.8 °F 19.4 °F 42% 30.00 in 10.0 mi North 8.1 mph 18.4 mph N/A   Clear
9:15 AM 42.8 °F 35.8 °F 19.4 °F 39% 30.00 in 10.0 mi North 13.8 mph 26.5 mph N/A   Clear
9:35 AM 44.6 °F 39.7 °F 21.2 °F 39% 30.00 in 10.0 mi North 9.2 mph 20.7 mph N/A   Clear
9:55 AM 44.6 °F 36.9 °F 19.4 °F 37% 30.00 in 10.0 mi NNW 18.4 mph 25.3 mph N/A   Clear
10:15 AM 44.6 °F 39.2 °F 21.2 °F 39% 30.00 in 10.0 mi North 10.4 mph 21.9 mph N/A   Clear
10:35 AM 46.4 °F 40.7 °F 21.2 °F 37% 30.00 in 10.0 mi NNW 12.7 mph 19.6 mph N/A   Clear
10:55 AM 46.4 °F 39.5 °F 21.2 °F 37% 29.99 in 10.0 mi NW 17.3 mph 21.9 mph N/A   Clear
11:15 AM 46.4 °F 41.1 °F 21.2 °F 37% 29.99 in 10.0 mi NNW 11.5 mph 21.9 mph N/A   Clear
11:35 AM 48.2 °F - 21.2 °F 34% 29.98 in 10.0 mi North 15.0 mph 21.9 mph N/A   Clear
11:55 AM 48.2 °F - 21.2 °F 34% 29.98 in 10.0 mi NNW 13.8 mph 21.9 mph N/A   Clear
12:15 PM 48.2 °F - 21.2 °F 34% 29.97 in 10.0 mi NNW 10.4 mph 20.7 mph N/A   Clear
12:35 PM 48.2 °F - 21.2 °F 34% 29.97 in 10.0 mi North 8.1 mph 23.0 mph N/A   Clear
12:55 PM 48.2 °F - 21.2 °F 34% 29.96 in 10.0 mi NNW 11.5 mph 17.3 mph N/A   Clear
1:15 PM 48.2 °F - 21.2 °F 34% 29.96 in 10.0 mi NW 10.4 mph 16.1 mph N/A   Clear
1:35 PM 48.2 °F - 21.2 °F 34% 29.95 in 10.0 mi WNW 10.4 mph 17.3 mph N/A   Clear
1:55 PM 48.2 °F - 21.2 °F 34% 29.95 in 10.0 mi NW 12.7 mph 20.7 mph N/A   Clear
2:15 PM 48.2 °F - 21.2 °F 34% 29.95 in 10.0 mi North 8.1 mph 12.7 mph N/A   Clear
2:35 PM 48.2 °F - 21.2 °F 34% 29.95 in 10.0 mi NW 11.5 mph - N/A   Clear
2:55 PM 48.2 °F - 21.2 °F 34% 29.95 in 10.0 mi NW 9.2 mph - N/A   Clear
3:15 PM 48.2 °F - 21.2 °F 34% 29.96 in 10.0 mi WNW 12.7 mph 21.9 mph N/A   Clear
3:35 PM 48.2 °F - 21.2 °F 34% 29.96 in 10.0 mi NW 13.8 mph 20.7 mph N/A   Clear
3:55 PM 46.4 °F 41.5 °F 21.2 °F 37% 29.97 in 10.0 mi WNW 10.4 mph 17.3 mph N/A   Clear
4:15 PM 46.4 °F 41.5 °F 21.2 °F 37% 29.97 in 10.0 mi NW 10.4 mph - N/A   Clear
4:35 PM 44.6 °F 40.2 °F 21.2 °F 39% 29.98 in 10.0 mi WNW 8.1 mph - N/A   Clear
4:55 PM 42.8 °F 38.6 °F 21.2 °F 42% 29.98 in 10.0 mi WNW 6.9 mph - N/A   Clear
5:15 PM 41.0 °F 38.0 °F 23.0 °F 49% 29.99 in 10.0 mi WNW 4.6 mph - N/A   Clear
5:35 PM 39.2 °F 35.0 °F 24.8 °F 56% 29.99 in 10.0 mi NW 5.8 mph - N/A   Clear
5:55 PM 37.4 °F - 24.8 °F 60% 30.00 in 10.0 mi Calm Calm - N/A   Clear
6:15 PM 37.4 °F 34.9 °F 24.8 °F 60% 30.01 in 10.0 mi NW 3.5 mph - N/A   Clear
6:35 PM 35.6 °F - 24.8 °F 65% 30.02 in 10.0 mi Calm Calm - N/A   Clear
6:55 PM 35.6 °F 32.8 °F 26.6 °F 70% 30.02 in 10.0 mi NW 3.5 mph - N/A   Clear
7:15 PM 35.6 °F 26.6 °F 24.8 °F 65% 30.04 in 10.0 mi North 13.8 mph 24.2 mph N/A   Clear
7:35 PM 37.4 °F 33.8 °F 23.0 °F 56% 30.04 in 10.0 mi North 4.6 mph - N/A   Clear
7:55 PM 37.4 °F 33.8 °F 23.0 °F 56% 30.05 in 10.0 mi North 4.6 mph - N/A   Clear
8:15 PM 37.4 °F 31.4 °F 21.2 °F 52% 30.06 in 10.0 mi North 8.1 mph - N/A   Clear
8:35 PM 37.4 °F 33.8 °F 21.2 °F 52% 30.06 in 10.0 mi NNW 4.6 mph - N/A   Clear
8:55 PM 35.6 °F 31.7 °F 21.2 °F 56% 30.07 in 10.0 mi North 4.6 mph - N/A   Clear
9:15 PM 35.6 °F 32.8 °F 21.2 °F 56% 30.08 in 10.0 mi North 3.5 mph - N/A   Clear
9:35 PM 33.8 °F 29.6 °F 21.2 °F 60% 30.09 in 10.0 mi NW 4.6 mph - N/A   Clear
9:55 PM 33.8 °F 29.6 °F 21.2 °F 60% 30.09 in 10.0 mi NW 4.6 mph - N/A   Clear
10:15 PM 33.8 °F - 21.2 °F 60% 30.09 in 10.0 mi Calm Calm - N/A   Clear
10:35 PM 32.0 °F - 21.2 °F 64% 30.10 in 10.0 mi Calm Calm - N/A   Clear
10:55 PM 30.2 °F 25.4 °F 23.0 °F 75% 30.10 in 10.0 mi NW 4.6 mph - N/A   Clear
11:15 PM 30.2 °F 25.4 °F 21.2 °F 69% 30.10 in 10.0 mi NW 4.6 mph - N/A   Clear
11:35 PM 30.2 °F - 23.0 °F 75% 30.10 in 10.0 mi Calm Calm - N/A   Clear
11:55 PM 30.2 °F - 23.0 °F 75% 30.10 in 10.0 mi Calm Calm - N/A   Clear